SWA1157 KMCO-KALB

Flight info

Callsign SWA1157
Flight time N/A
Altitude 39000
Route FATHE3 VIYAP Q87 GEARS BBOBO Q22 SHTGN SWANN LAAYK DNY
Aircraft B38M/M-SDE1FGHILORVWXY/HB1

Departure

Time 2026-04-26 22:09
Airport Orlando International Airport (KMCO)

Arrival

Time N/A
Airport Albany International Airport (KALB)
Time Latitude Longitude Altitude Speed Heading
2026-04-26 21:28 28.43614 -81.30191 90 ft 0 kts 158°
2026-04-26 21:57 28.43626 -81.30196 90 ft 2 kts 159°
2026-04-26 21:57 28.43638 -81.30202 91 ft 2 kts 158°
2026-04-26 21:57 28.43652 -81.30208 91 ft 2 kts 159°
2026-04-26 21:58 28.43665 -81.30214 91 ft 2 kts 158°
2026-04-26 21:58 28.43679 -81.30220 91 ft 2 kts 158°
2026-04-26 21:58 28.43693 -81.30226 91 ft 2 kts 158°
2026-04-26 21:58 28.43706 -81.30232 91 ft 2 kts 158°
2026-04-26 21:59 28.43719 -81.30238 91 ft 1 kts 159°
2026-04-26 21:59 28.43729 -81.30244 91 ft 1 kts 117°
2026-04-26 21:59 28.43731 -81.30252 91 ft 0 kts 72°
2026-04-26 21:59 28.43726 -81.30260 91 ft 2 kts 37°
2026-04-26 22:00 28.43718 -81.30267 91 ft 1 kts 52°
2026-04-26 22:00 28.43718 -81.30268 91 ft 0 kts 52°
2026-04-26 22:05 28.43726 -81.30255 91 ft 6 kts 52°
2026-04-26 22:06 28.43774 -81.30187 91 ft 16 kts 51°
2026-04-26 22:06 28.43823 -81.30048 91 ft 16 kts 94°
2026-04-26 22:06 28.43835 -81.29962 91 ft 12 kts 57°
2026-04-26 22:06 28.43826 -81.29874 91 ft 12 kts 131°
2026-04-26 22:07 28.43748 -81.29820 91 ft 16 kts 161°
2026-04-26 22:07 28.43625 -81.29806 91 ft 18 kts 180°
2026-04-26 22:07 28.43552 -81.29737 91 ft 14 kts 97°
2026-04-26 22:07 28.43551 -81.29635 91 ft 13 kts 89°
2026-04-26 22:08 28.43498 -81.29589 91 ft 12 kts 183°
2026-04-26 22:08 28.43160 -81.29583 91 ft 95 kts 180°
2026-04-26 22:08 28.42254 -81.29574 89 ft 170 kts 181°
2026-04-26 22:08 28.40902 -81.29550 451 ft 209 kts 181°
2026-04-26 22:09 28.39409 -81.29419 1105 ft 230 kts 167°
2026-04-26 22:09 28.38033 -81.28389 1933 ft 250 kts 129°
2026-04-26 22:09 28.37458 -81.26605 2784 ft 255 kts 91°
2026-04-26 22:09 28.37892 -81.24709 3601 ft 260 kts 56°
2026-04-26 22:10 28.39090 -81.23243 4534 ft 262 kts 33°
2026-04-26 22:10 28.40697 -81.22379 5201 ft 272 kts 11°
2026-04-26 22:10 28.42560 -81.22192 6091 ft 275 kts 354°
2026-04-26 22:10 28.44386 -81.22441 7088 ft 274 kts 348°
2026-04-26 22:11 28.46225 -81.22797 8088 ft 274 kts 348°
2026-04-26 22:11 28.48072 -81.23141 9052 ft 276 kts 348°
2026-04-26 22:11 28.49935 -81.23457 9956 ft 279 kts 349°
2026-04-26 22:11 28.51869 -81.23768 10633 ft 290 kts 350°
2026-04-26 22:12 28.53904 -81.24089 11195 ft 305 kts 350°
2026-04-26 22:12 28.56054 -81.24425 11724 ft 320 kts 350°
2026-04-26 22:12 28.58270 -81.24772 12197 ft 335 kts 350°
2026-04-26 22:12 28.60625 -81.25142 12647 ft 349 kts 350°
2026-04-26 22:13 28.63080 -81.25528 13049 ft 364 kts 350°
2026-04-26 22:13 28.65632 -81.25929 13672 ft 371 kts 350°
2026-04-26 22:13 28.68175 -81.26327 14353 ft 376 kts 350°
2026-04-26 22:13 28.70763 -81.26733 15056 ft 380 kts 350°
2026-04-26 22:14 28.73426 -81.27151 15749 ft 384 kts 350°
2026-04-26 22:14 28.76083 -81.27569 16420 ft 388 kts 350°
2026-04-26 22:14 28.78772 -81.27992 17085 ft 392 kts 350°
2026-04-26 22:14 28.81455 -81.28416 17711 ft 397 kts 349°
2026-04-26 22:15 28.84244 -81.28854 18342 ft 401 kts 350°
2026-04-26 22:15 28.87016 -81.29209 18941 ft 406 kts 352°
2026-04-26 22:15 28.89824 -81.29470 19492 ft 412 kts 353°
2026-04-26 22:15 28.92728 -81.29697 20095 ft 416 kts 354°
2026-04-26 22:16 28.95638 -81.29916 20656 ft 419 kts 354°
2026-04-26 22:16 28.98549 -81.30137 21221 ft 423 kts 354°
2026-04-26 22:16 29.01514 -81.30388 21709 ft 427 kts 353°
2026-04-26 22:16 29.04487 -81.30685 22217 ft 431 kts 352°
2026-04-26 22:17 29.07491 -81.31011 22688 ft 435 kts 352°
2026-04-26 22:17 29.10534 -81.31353 23216 ft 438 kts 352°
2026-04-26 22:17 29.13433 -81.31639 23689 ft 441 kts 353°
2026-04-26 22:17 29.16569 -81.31868 24179 ft 445 kts 354°
2026-04-26 22:18 29.19671 -81.32050 24701 ft 447 kts 354°
2026-04-26 22:18 29.22803 -81.32219 25211 ft 449 kts 354°
2026-04-26 22:18 29.25957 -81.32388 25656 ft 453 kts 355°
2026-04-26 22:18 29.29109 -81.32559 26192 ft 454 kts 354°
2026-04-26 22:19 29.32275 -81.32735 26594 ft 458 kts 354°
2026-04-26 22:19 29.35452 -81.32915 27055 ft 460 kts 354°
2026-04-26 22:19 29.38663 -81.33100 27581 ft 460 kts 354°
2026-04-26 22:19 29.41859 -81.33288 27917 ft 465 kts 354°
2026-04-26 22:20 29.45083 -81.33478 28560 ft 462 kts 354°
2026-04-26 22:20 29.48294 -81.33667 29300 ft 457 kts 353°
2026-04-26 22:20 29.51487 -81.33857 29965 ft 454 kts 353°
2026-04-26 22:20 29.54641 -81.34045 30644 ft 450 kts 353°
2026-04-26 22:21 29.57739 -81.34231 31314 ft 445 kts 353°
2026-04-26 22:21 29.60841 -81.34417 31948 ft 441 kts 353°
2026-04-26 22:21 29.63934 -81.34603 32577 ft 437 kts 353°
2026-04-26 22:21 29.66917 -81.34781 33174 ft 433 kts 353°
2026-04-26 22:22 29.69945 -81.34956 33744 ft 430 kts 353°
2026-04-26 22:22 29.72912 -81.35123 34323 ft 426 kts 353°
2026-04-26 22:22 29.75827 -81.35287 34879 ft 422 kts 352°
2026-04-26 22:22 29.78785 -81.35455 35298 ft 422 kts 352°
2026-04-26 22:23 29.81683 -81.35622 35806 ft 418 kts 352°
2026-04-26 22:23 29.84611 -81.35789 36264 ft 416 kts 352°
2026-04-26 22:23 29.87420 -81.35952 36698 ft 414 kts 352°
2026-04-26 22:23 29.90275 -81.36118 37102 ft 413 kts 352°
2026-04-26 22:24 29.93163 -81.36284 37515 ft 411 kts 352°
2026-04-26 22:24 29.95960 -81.36445 37858 ft 410 kts 352°
2026-04-26 22:24 29.98818 -81.36610 38174 ft 409 kts 352°
2026-04-26 22:24 30.01625 -81.36771 38493 ft 408 kts 352°
2026-04-26 22:25 30.04419 -81.36933 38775 ft 408 kts 351°
2026-04-26 22:25 30.07279 -81.37099 38893 ft 410 kts 352°
2026-04-26 22:25 30.12982 -81.37435 38893 ft 418 kts 352°
2026-04-26 22:26 30.18793 -81.37775 38890 ft 425 kts 352°
2026-04-26 22:26 30.24721 -81.38116 38891 ft 426 kts 352°
2026-04-26 22:27 30.30656 -81.38455 38888 ft 425 kts 352°
2026-04-26 22:27 30.36492 -81.38791 38889 ft 425 kts 352°
2026-04-26 22:28 30.42406 -81.39131 38890 ft 427 kts 352°
2026-04-26 22:28 30.48328 -81.39473 38889 ft 427 kts 352°
2026-04-26 22:29 30.54196 -81.39786 38892 ft 427 kts 352°
2026-04-26 22:29 30.60105 -81.40095 38890 ft 427 kts 352°
2026-04-26 22:30 30.66045 -81.40404 38889 ft 426 kts 352°
2026-04-26 22:30 30.71979 -81.40719 38890 ft 427 kts 352°
2026-04-26 22:31 30.77876 -81.41030 38886 ft 429 kts 352°
2026-04-26 22:31 30.83829 -81.41348 38883 ft 428 kts 352°
2026-04-26 22:32 30.89775 -81.41666 38877 ft 427 kts 352°
2026-04-26 22:32 30.95734 -81.41985 38881 ft 428 kts 351°
2026-04-26 22:33 31.04657 -81.42462 38886 ft 429 kts 352°
2026-04-26 22:34 31.10554 -81.42775 38891 ft 428 kts 352°
2026-04-26 22:34 31.16486 -81.43091 38893 ft 428 kts 352°
2026-04-26 22:35 31.22450 -81.43280 38894 ft 433 kts 356°
2026-04-26 22:35 31.28382 -81.41925 38898 ft 445 kts 13°
2026-04-26 22:36 31.34155 -81.39051 38894 ft 454 kts 18°
2026-04-26 22:36 31.39841 -81.35873 38888 ft 452 kts 19°
2026-04-26 22:37 31.45501 -81.32698 38885 ft 452 kts 18°
2026-04-26 22:37 31.51154 -81.29570 38885 ft 453 kts 18°
2026-04-26 22:38 31.56889 -81.26427 38886 ft 452 kts 18°
2026-04-26 22:38 31.62569 -81.23319 38886 ft 451 kts 18°
2026-04-26 22:39 31.68226 -81.20229 38886 ft 452 kts 18°
2026-04-26 22:39 31.73933 -81.17107 38883 ft 453 kts 18°
2026-04-26 22:40 31.79632 -81.13987 38889 ft 453 kts 17°
2026-04-26 22:40 31.85341 -81.10855 38889 ft 453 kts 17°
2026-04-26 22:41 31.91019 -81.07739 38893 ft 454 kts 17°
2026-04-26 22:41 31.96715 -81.04610 38889 ft 451 kts 17°
2026-04-26 22:42 32.02380 -81.01485 38895 ft 453 kts 18°
2026-04-26 22:42 32.08065 -80.98315 38893 ft 454 kts 18°
2026-04-26 22:43 32.13751 -80.95129 38895 ft 453 kts 18°
2026-04-26 22:43 32.19412 -80.91952 38906 ft 455 kts 18°
2026-04-26 22:44 32.25106 -80.88751 38914 ft 453 kts 18°
2026-04-26 22:44 32.30760 -80.85571 38908 ft 456 kts 18°
2026-04-26 22:45 32.36439 -80.82375 38912 ft 456 kts 18°
2026-04-26 22:45 32.42141 -80.79156 38917 ft 453 kts 18°
2026-04-26 22:46 32.47829 -80.75946 38919 ft 456 kts 18°
2026-04-26 22:46 32.53473 -80.72756 38922 ft 456 kts 18°
2026-04-26 22:47 32.59130 -80.69553 38923 ft 457 kts 18°
2026-04-26 22:47 32.64818 -80.66328 38926 ft 456 kts 18°
2026-04-26 22:48 32.70531 -80.63083 38926 ft 456 kts 18°
2026-04-26 22:48 32.76232 -80.59779 38930 ft 457 kts 19°
2026-04-26 22:49 32.81929 -80.56387 38933 ft 461 kts 19°
2026-04-26 22:49 32.87623 -80.52982 38945 ft 459 kts 19°
2026-04-26 22:50 32.93322 -80.49571 38944 ft 459 kts 20°
2026-04-26 22:50 32.99009 -80.46175 38943 ft 460 kts 20°
2026-04-26 22:51 33.04731 -80.42758 38943 ft 461 kts 20°
2026-04-26 22:51 33.10415 -80.39357 38948 ft 462 kts 20°
2026-04-26 22:52 33.16152 -80.35924 38953 ft 463 kts 20°
2026-04-26 22:52 33.21892 -80.32481 38947 ft 461 kts 20°
2026-04-26 22:53 33.27633 -80.29030 38960 ft 464 kts 20°
2026-04-26 22:53 33.33355 -80.25586 38962 ft 464 kts 20°
2026-04-26 22:54 33.39088 -80.22133 38956 ft 464 kts 20°
2026-04-26 22:54 33.44805 -80.18682 38964 ft 465 kts 20°
2026-04-26 22:55 33.50592 -80.15186 38963 ft 465 kts 20°
2026-04-26 22:55 33.56327 -80.11716 38961 ft 464 kts 21°
2026-04-26 22:56 33.62047 -80.08250 38976 ft 466 kts 20°
2026-04-26 22:56 33.67794 -80.04764 38977 ft 465 kts 20°
2026-04-26 22:57 33.73547 -80.01265 38975 ft 466 kts 20°
2026-04-26 22:57 33.79337 -79.97742 38974 ft 466 kts 21°
2026-04-26 22:58 33.85143 -79.94202 38971 ft 467 kts 21°
2026-04-26 22:58 33.90922 -79.90675 38979 ft 467 kts 21°
2026-04-26 22:59 33.96716 -79.87134 38973 ft 467 kts 21°
2026-04-26 22:59 34.02512 -79.83584 38995 ft 467 kts 21°
2026-04-26 23:00 34.08314 -79.80024 38993 ft 467 kts 21°
2026-04-26 23:00 34.14111 -79.76463 38999 ft 468 kts 21°
2026-04-26 23:01 34.19844 -79.72938 38995 ft 466 kts 21°
2026-04-26 23:01 34.25534 -79.69430 39000 ft 466 kts 21°
2026-04-26 23:02 34.31222 -79.65921 38996 ft 466 kts 21°
2026-04-26 23:02 34.36879 -79.62425 39000 ft 466 kts 21°
2026-04-26 23:03 34.42604 -79.58882 38998 ft 465 kts 21°
2026-04-26 23:03 34.48285 -79.55360 39005 ft 466 kts 21°
2026-04-26 23:04 34.54031 -79.51792 39006 ft 465 kts 21°
2026-04-26 23:04 34.59765 -79.48122 39005 ft 465 kts 22°
2026-04-26 23:05 34.65431 -79.44293 39008 ft 467 kts 23°
2026-04-26 23:05 34.71073 -79.40440 39010 ft 465 kts 23°
2026-04-26 23:06 34.76685 -79.36615 39021 ft 465 kts 23°
2026-04-26 23:06 34.82370 -79.32751 39026 ft 465 kts 24°
2026-04-26 23:07 34.88015 -79.28914 39024 ft 465 kts 24°
2026-04-26 23:07 34.93691 -79.25055 39023 ft 465 kts 24°
2026-04-26 23:08 34.99340 -79.21207 39030 ft 465 kts 24°
2026-04-26 23:08 35.04973 -79.17364 39035 ft 465 kts 24°
2026-04-26 23:09 35.10608 -79.13516 39033 ft 465 kts 24°
2026-04-26 23:09 35.16248 -79.09658 39036 ft 465 kts 24°
2026-04-26 23:10 35.21856 -79.05818 39038 ft 465 kts 24°
2026-04-26 23:10 35.27387 -79.02025 39037 ft 464 kts 24°
2026-04-26 23:11 35.32880 -78.98251 39038 ft 465 kts 24°
2026-04-26 23:11 35.38372 -78.94472 39041 ft 465 kts 24°
2026-04-26 23:12 35.43921 -78.90647 39038 ft 466 kts 24°
2026-04-26 23:12 35.49516 -78.86784 39042 ft 465 kts 24°
2026-04-26 23:13 35.55100 -78.82923 39046 ft 465 kts 25°
2026-04-26 23:13 35.60702 -78.79041 39041 ft 465 kts 25°
2026-04-26 23:14 35.66312 -78.75149 39045 ft 466 kts 25°
2026-04-26 23:14 35.71916 -78.71255 39044 ft 466 kts 25°
2026-04-26 23:15 35.77509 -78.67362 39047 ft 466 kts 25°
2026-04-26 23:15 35.83110 -78.63458 39051 ft 466 kts 25°
2026-04-26 23:16 35.88730 -78.59534 39050 ft 467 kts 25°
2026-04-26 23:16 35.94327 -78.55618 39050 ft 466 kts 25°
2026-04-26 23:17 35.99918 -78.51702 39062 ft 467 kts 25°
2026-04-26 23:17 36.03669 -78.49071 39063 ft 468 kts 25°